FW0958 Weather Reports


Display with metric or nautical units.
time (UTC)temp
F
wind
direction
speed
MPH
gust
MPH
rain 1hr
in
rain 24hr
in
rain mn
in
humidity
%
barometer
mb
20260504184316 68 23 3.0 12.0 0.00 0.02 0.02 62 1015.9
20260504183816 68 311 3.0 9.0 0.00 0.02 0.02 65 1016.0
20260504183317 68 329 3.0 9.0 0.00 0.02 0.02 64 1015.9
20260504182816 67 276 2.0 9.0 0.00 0.02 0.02 65 1016.0
20260504182321 67 316 2.0 7.0 0.00 0.02 0.02 66 1015.9
20260504182315 67 45 3.0 9.0 0.00 0.02 0.02 65 1015.9
20260504181323 67 329 2.0 8.0 0.00 0.02 0.02 67 1016.0
20260504181317 67 317 2.0 8.0 0.00 0.02 0.02 66 1016.1
20260504180315 65 319 2.0 9.0 0.00 0.02 0.02 68 1016.0
20260504175815 64 301 3.0 9.0 0.00 0.02 0.02 70 1016.1
20260504175320 65 319 1.0 8.0 0.00 0.02 0.02 68 1016.1
20260504175314 65 39 2.0 9.0 0.00 0.02 0.02 69 1015.9
20260504174314 64 295 2.0 8.0 0.00 0.02 0.02 70 1016.0
20260504173819 64 353 2.0 8.0 0.00 0.02 0.02 70 1015.9
20260504173814 64 337 2.0 8.0 0.00 0.02 0.02 70 1016.0
20260504172814 64 18 2.0 7.0 0.00 0.02 0.02 72 1016.0
20260504172314 63 6 2.0 7.0 0.00 0.02 0.02 72 1015.8
20260504171815 63 14 2.0 8.0 0.00 0.02 0.02 71 1015.9
20260504171312 62 334 2.0 8.0 0.00 0.02 0.02 72 1015.8
20260504170813 63 25 3.0 10.0 0.00 0.02 0.02 73 1015.7
20260504170312 63 7 2.0 10.0 0.00 0.02 0.02 72 1015.7
20260504160313 60 14 0.0 0.0 0.00 0.02 0.02 82 1015.5
20260504150812 57 39 0.0 2.0 0.00 0.02 0.02 89 1015.3
20260504150313 57 39 0.0 2.0 0.00 0.02 0.02 89 1015.2
20260504140808 56 18 0.0 0.0 0.00 0.02 0.02 90 1014.7
20260504140308 56 18 0.0 0.0 0.00 0.02 0.02 90 1014.9
20260504130811 56 18 0.0 0.0 0.00 0.02 0.02 90 1014.7
20260504130805 56 18 0.0 0.0 0.00 0.02 0.02 90 1014.6
20260504130305 56 18 0.0 0.0 0.00 0.02 0.02 90 1014.8
20260504120309 56 18 0.0 0.0 0.00 0.02 0.02 89 1014.5
20260504120304 56 18 0.0 0.0 0.00 0.02 0.02 89 1014.4
20260504110302 57 18 0.0 0.0 0.00 0.02 0.02 90 1014.5
20260504100420 57 25 0.0 1.0 0.00 0.02 0.02 90 1014.2
20260504100303 57 25 0.0 1.0 0.00 0.02 0.02 90 1014.1
20260504100259 57 25 0.0 2.0 0.00 0.02 0.02 90 1014.1
20260504081756 58 39 0.0 3.0 0.00 0.00 0.00 88 1015.1
20260504081255 58 39 0.0 1.0 0.00 0.00 0.00 87 1015.3
20260504080755 59 39 0.0 2.0 0.00 0.00 0.00 87 1015.3
20260504080254 59 39 0.0 2.0 0.00 0.00 0.00 87 1015.4
20260504070413 61 295 1.0 6.0 0.00 0.00 0.00 78 1015.4
20260504050252 61 330 0.0 2.0 0.00 0.00 0.00 74 1015.2
20260504045751 61 358 0.0 2.0 0.00 0.00 0.00 74 1015.2
20260504045252 61 0 0.0 2.0 0.00 0.00 0.00 74 1015.0
20260504044752 61 359 0.0 2.0 0.00 0.00 0.00 74 1014.7
20260504044257 61 12 0.0 1.0 0.00 0.00 0.00 73 1014.6
20260504044251 61 12 0.0 1.0 0.00 0.00 0.00 74 1014.8
20260504043252 61 12 0.0 1.0 0.00 0.00 0.00 73 1014.5
20260504042751 61 15 0.0 2.0 0.00 0.00 0.00 73 1014.7
20260504042251 61 14 0.0 2.0 0.00 0.00 0.00 73 1014.6
20260504041752 61 16 0.0 2.0 0.00 0.00 0.00 73 1014.6
20260504041300 61 17 0.0 2.0 0.00 0.00 0.00 73 1014.2
20260504041251 61 16 0.0 2.0 0.00 0.00 0.00 73 1014.9
20260504040753 61 11 0.0 2.0 0.00 0.00 0.00 73 1014.6
20260504040410 61 16 1.0 4.0 0.00 0.00 0.00 73 1014.4
20260504035251 61 15 1.0 4.0 0.00 0.00 0.00 73 1014.4
20260504034750 62 20 1.0 2.0 0.00 0.00 0.00 72 1014.5
20260504034249 62 12 0.0 2.0 0.00 0.00 0.00 72 1014.4
20260504033750 62 342 0.0 1.0 0.00 0.00 0.00 72 1014.5
20260504033249 62 344 0.0 1.0 0.00 0.00 0.00 72 1014.5
20260504032749 62 351 0.0 1.0 0.00 0.00 0.00 72 1014.5
20260504032249 62 29 0.0 1.0 0.00 0.00 0.00 72 1014.5
20260504031749 62 338 0.0 1.0 0.00 0.00 0.00 72 1014.2
20260504031250 62 336 0.0 3.0 0.00 0.00 0.00 72 1014.0
20260504030754 62 29 1.0 3.0 0.00 0.00 0.00 71 1014.0
20260504030749 62 3 1.0 4.0 0.00 0.00 0.00 72 1014.1
20260504030247 62 10 1.0 4.0 0.00 0.00 0.00 71 1014.2
20260504025254 62 328 1.0 3.0 0.00 0.00 0.00 71 1013.8
20260504025249 62 330 1.0 3.0 0.00 0.00 0.00 71 1013.8
20260504024249 62 16 1.0 5.0 0.00 0.00 0.00 70 1013.6
20260504023748 62 7 1.0 5.0 0.00 0.00 0.00 70 1013.7
20260504023249 62 58 1.0 5.0 0.00 0.00 0.00 70 1013.8
20260504022749 62 355 1.0 6.0 0.00 0.00 0.00 69 1013.8
20260504022252 62 333 1.0 7.0 0.00 0.00 0.00 69 1013.9
20260504022247 62 300 1.0 6.0 0.00 0.00 0.00 69 1013.8
20260504021251 63 345 1.0 8.0 0.00 0.00 0.00 69 1013.7
20260504021247 63 295 1.0 7.0 0.00 0.00 0.00 69 1013.9
20260504020745 63 279 1.0 8.0 0.00 0.00 0.00 69 1013.8
20260504015745 63 20 1.0 7.0 0.00 0.00 0.00 69 1013.7
20260504015245 63 332 1.0 8.0 0.00 0.00 0.00 69 1013.7
20260504014746 63 1 1.0 8.0 0.00 0.00 0.00 68 1013.4
20260504014245 63 353 1.0 6.0 0.00 0.00 0.00 68 1013.5
20260504013745 63 47 1.0 6.0 0.00 0.00 0.00 67 1013.6
20260504013249 63 1 2.0 8.0 0.00 0.00 0.00 67 1013.6
20260504013243 64 326 2.0 9.0 0.00 0.00 0.00 67 1013.5
20260504012244 64 7 1.0 9.0 0.00 0.00 0.00 66 1013.4
20260504011752 65 308 2.0 9.0 0.00 0.00 0.00 64 1013.2
20260504011743 64 305 1.0 8.0 0.00 0.00 0.00 66 1013.4
20260504011245 64 324 1.0 8.0 0.00 0.00 0.00 65 1013.3
20260504010908 65 332 1.0 8.0 0.00 0.00 0.00 65 1013.1
20260504010744 65 290 2.0 9.0 0.00 0.00 0.00 65 1013.2
20260504005244 65 352 2.0 14.0 0.00 0.00 0.00 64 1013.1
20260504004743 65 322 3.0 14.0 0.00 0.00 0.00 64 1012.8
20260504004243 65 301 3.0 11.0 0.00 0.00 0.00 63 1012.9
20260504003749 67 313 3.0 11.0 0.00 0.00 0.00 62 1012.5
20260504003743 66 311 3.0 11.0 0.00 0.00 0.00 62 1012.9
20260504002744 67 308 2.0 10.0 0.00 0.00 0.00 61 1012.7
20260504002249 68 12 3.0 12.0 0.00 0.00 0.00 58 1012.4
20260504002243 68 301 3.0 12.0 0.00 0.00 0.00 60 1012.6
20260504001244 69 19 3.0 11.0 0.00 0.00 0.00 58 1012.5
20260504000743 69 255 3.0 12.0 0.00 0.00 0.00 59 1012.3
20260504000243 69 22 3.0 12.0 0.00 0.00 0.00 59 1012.2
20260503235744 70 337 3.0 12.0 0.00 0.00 0.00 58 1012.1
20260503235241 70 349 4.0 12.0 0.00 0.00 0.00 57 1012.3
20260503234746 72 330 3.0 9.0 0.00 0.00 0.00 56 1012.0
20260503234742 71 349 3.0 12.0 0.00 0.00 0.00 57 1012.3
20260503234402 73 297 3.0 10.0 0.00 0.00 0.00 57 1011.9
20260503233240 73 309 3.0 10.0 0.00 0.00 0.00 56 1012.1
20260503232747 72 284 2.0 9.0 0.00 0.00 0.00 57 1012.2
20260503232741 72 333 2.0 7.0 0.00 0.00 0.00 56 1012.1
20260503231741 71 301 3.0 9.0 0.00 0.00 0.00 57 1012.2
20260503231241 71 320 2.0 8.0 0.00 0.00 0.00 58 1012.3
20260503230741 72 309 3.0 10.0 0.00 0.00 0.00 56 1012.4
20260503230242 71 312 3.0 14.0 0.00 0.00 0.00 58 1012.4
20260503225743 71 356 2.0 14.0 0.00 0.00 0.00 58 1012.3
20260503225241 70 300 3.0 8.0 0.00 0.00 0.00 60 1012.5
20260503224741 70 280 3.0 8.0 0.00 0.00 0.00 60 1012.5
20260503224242 70 16 1.0 7.0 0.00 0.00 0.00 60 1012.5
20260503223741 70 316 1.0 8.0 0.00 0.00 0.00 60 1012.6
20260503223242 69 278 1.0 8.0 0.00 0.00 0.00 62 1012.3
20260503222741 69 299 1.0 7.0 0.00 0.00 0.00 63 1012.6
20260503222242 69 270 2.0 7.0 0.00 0.00 0.00 62 1012.8
20260503221741 70 330 3.0 10.0 0.00 0.00 0.00 62 1012.9
20260503221241 70 64 3.0 10.0 0.00 0.00 0.00 62 1012.7
20260503220740 71 292 3.0 9.0 0.00 0.00 0.00 61 1012.8
20260503220240 71 298 3.0 10.0 0.00 0.00 0.00 63 1012.8
20260503215739 69 338 3.0 10.0 0.00 0.00 0.00 63 1013.1
20260503215240 70 332 3.0 9.0 0.00 0.00 0.00 62 1013.2
20260503214738 70 331 3.0 9.0 0.00 0.00 0.00 64 1013.2
20260503214239 70 39 3.0 9.0 0.00 0.00 0.00 63 1013.2
20260503213740 69 39 2.0 10.0 0.00 0.00 0.00 65 1013.1
20260503213240 69 325 3.0 10.0 0.00 0.00 0.00 63 1013.1
20260503212738 71 324 4.0 10.0 0.00 0.00 0.00 63 1013.3
20260503212240 70 303 4.0 10.0 0.00 0.00 0.00 64 1013.2
20260503211739 69 302 3.0 10.0 0.00 0.00 0.00 65 1013.2
20260503211239 69 343 3.0 9.0 0.00 0.00 0.00 65 1013.3
20260503210739 69 8 3.0 12.0 0.00 0.00 0.00 64 1013.3
20260503210735 69 20 2.0 12.0 0.00 0.00 0.00 66 1013.3
20260503205735 68 326 3.0 10.0 0.00 0.00 0.00 66 1013.3
20260503205234 69 345 3.0 10.0 0.00 0.00 0.00 66 1013.4
20260503204735 67 328 3.0 9.0 0.00 0.00 0.00 67 1013.4
20260503204234 67 39 2.0 9.0 0.00 0.00 0.00 68 1013.5
20260503203735 67 332 3.0 8.0 0.00 0.00 0.00 68 1013.4
20260503203235 67 347 3.0 8.0 0.00 0.00 0.00 67 1013.5
20260503202735 68 39 1.0 7.0 0.00 0.00 0.00 67 1013.5
20260503202240 68 306 2.0 10.0 0.00 0.00 0.00 68 1013.6
20260503202235 68 39 1.0 7.0 0.00 0.00 0.00 68 1013.5
20260503201232 68 332 3.0 10.0 0.00 0.00 0.00 67 1013.6
20260503200734 68 325 2.0 8.0 0.00 0.00 0.00 67 1013.6
20260503200233 68 315 2.0 9.0 0.00 0.00 0.00 68 1013.6
20260503195737 68 324 3.0 9.0 0.00 0.00 0.00 68 1013.7
20260503195732 68 340 3.0 9.0 0.00 0.00 0.00 68 1013.7
20260503195353 68 318 3.0 9.0 0.00 0.00 0.00 67 1013.8
20260503194234 68 305 3.0 9.0 0.00 0.00 0.00 67 1013.7
20260503193734 69 309 2.0 8.0 0.00 0.00 0.00 67 1013.7
20260503193237 67 330 4.0 10.0 0.00 0.00 0.00 69 1013.8
20260503193232 68 305 3.0 9.0 0.00 0.00 0.00 68 1013.8
20260503192231 67 328 3.0 10.0 0.00 0.00 0.00 69 1013.7
20260503191731 67 330 3.0 9.0 0.00 0.00 0.00 70 1013.7
20260503191230 67 45 3.0 9.0 0.00 0.00 0.00 70 1013.8
20260503190731 67 3 3.0 8.0 0.00 0.00 0.00 71 1013.9
20260503190236 67 305 4.0 10.0 0.00 0.00 0.00 71 1013.8
20260503190230 67 338 4.0 9.0 0.00 0.00 0.00 71 1013.7
20260503185231 67 329 4.0 12.0 0.00 0.00 0.00 71 1013.7
20260503184730 67 302 3.0 12.0 0.00 0.00 0.00 71 1013.7